Mitchell, SD

10:34 PM CDT on October 23, 2019 (GMT -0500)
Mitchell Municipal

Weather History for KMHE - August, 2019

Change the Weather History Date:

Sunday, August 25, 2019

  Actual Average Record
Temperature  
Mean Temperature 69 °F 71 °F  
Max Temperature 74 °F 82 °F 104 °F (1955)
Min Temperature 64 °F 59 °F 41 °F (1964)
Degree Days  
Heating Degree Days 0 0  
Month to date heating degree days 0 0  
Since 1 June heating degree days 16 40  
Since 1 July heating degree days 0 5  
Cooling Degree Days 4 6  
Month to date cooling degree days 205 195  
Year to date cooling degree days 785 713  
Since 1 June cooling degree days 766 673  
Growing Degree Days 18 (Base 50)    
Moisture  
Dew Point 62 °F    
Average Humidity 81    
Maximum Humidity 93    
Minimum Humidity 68    
Precipitation  
Precipitation T in 0.06 in 1.97 in (1954)
Month to date precipitation 2.14 1.95  
Year to date precipitation 23.06 15.92  
Snow  
Snow 0.00 in - 0.00 in ()
Month to date snowfall 0.0  
Since 1 June snowfall 0.0  
Since 1 July snowfall 0.0  
Snow Depth 0.00 in    
Sea Level Pressure  
Sea Level Pressure 29.85 in    
Wind  
Wind Speed 14 mph (SSE)    
Max Wind Speed 22 mph    
Max Gust Speed 29 mph    
Visibility 10 miles    
Events Rain    
T = Trace of Precipitation, MM = Missing Value Source: NWS Daily Summary

Daily Weather History Graph

Daily Weather History Graph

Search for Another Location

Airport or City:

Astronomy

Aug. 25, 2019 Rise Set
Actual Time 6:47 AM CDT 8:20 PM CDT
Civil Twilight 6:17 AM CDT 8:50 PM CDT
Nautical Twilight 5:40 AM CDT 9:26 PM CDT
Astronomical Twilight 5:01 AM CDT 10:05 PM CDT
Moon 1:17 AM CDT (8/25) 4:49 PM CDT (8/25)
Length of Visible Light 14h 32m
Length of Day
13h 32m
Waning Crescent, 29% of the Moon is Illuminated
Aug 25
Waning Crescent
Aug 30
New
Sep 5
First Quarter
Sep 13
Full
Sep 21
Last Quarter

Hourly Weather History & Observations

Time (CDT) Temp. Dew Point Humidity Pressure Visibility Wind Dir Wind Speed Gust Speed Precip Events Conditions
12:01 AM 64.9 °F 61.0 °F 87% 29.97 in 9.0 mi SE 16.1 mph 24.2 mph N/A   Overcast
12:17 AM 64.9 °F 61.0 °F 87% 29.96 in 5.0 mi SE 15.0 mph - 0.00 in Rain Light Rain
12:45 AM 64.0 °F 61.0 °F 90% 29.96 in 8.0 mi SE 16.1 mph 24.2 mph 0.01 in Rain Light Rain
12:53 AM 64.0 °F 61.0 °F 90% 29.94 in 10.0 mi SE 13.8 mph 24.2 mph 0.01 in   Overcast
1:19 AM 64.0 °F 61.0 °F 90% 29.95 in 10.0 mi SSE 15.0 mph 24.2 mph N/A   Overcast
1:53 AM 64.0 °F 61.0 °F 90% 29.93 in 10.0 mi SE 13.8 mph 20.7 mph 0.00 in   Overcast
2:53 AM 64.9 °F 61.0 °F 87% 29.91 in 10.0 mi SSE 15.0 mph 23.0 mph N/A   Overcast
3:05 AM 64.9 °F 61.0 °F 87% 29.92 in 10.0 mi SSE 13.8 mph 21.9 mph N/A   Overcast
3:45 AM 64.9 °F 62.1 °F 90% 29.91 in 10.0 mi SSE 13.8 mph 20.7 mph 0.00 in Rain Light Rain
3:53 AM 64.9 °F 61.0 °F 87% 29.88 in 10.0 mi SE 15.0 mph 24.2 mph 0.00 in   Overcast
4:51 AM 64.4 °F 60.8 °F 88% 29.90 in 10.0 mi SSE 15.0 mph - N/A   Overcast
4:53 AM 64.9 °F 61.0 °F 87% 29.88 in 10.0 mi SSE 12.7 mph - N/A   Overcast
5:53 AM 64.9 °F 62.1 °F 90% 29.86 in 10.0 mi SSE 15.0 mph 21.9 mph N/A   Overcast
6:53 AM 64.9 °F 61.0 °F 87% 29.86 in 10.0 mi SSE 15.0 mph - N/A   Overcast
7:53 AM 66.0 °F 61.0 °F 84% 29.86 in 10.0 mi SSE 13.8 mph - N/A   Overcast
8:53 AM 66.0 °F 62.1 °F 87% 29.87 in 10.0 mi SSE 13.8 mph 24.2 mph N/A   Overcast
9:53 AM 66.9 °F 62.1 °F 84% 29.87 in 10.0 mi South 13.8 mph - N/A   Overcast
10:20 AM 69.1 °F 62.1 °F 78% 29.88 in 10.0 mi South 11.5 mph 19.6 mph N/A   Overcast
10:53 AM 69.1 °F 62.1 °F 78% 29.88 in 10.0 mi South 13.8 mph - N/A   Overcast
11:53 AM 70.0 °F 62.1 °F 76% 29.85 in 10.0 mi SSE 15.0 mph - N/A   Overcast
12:53 PM 69.1 °F 62.1 °F 78% 29.85 in 10.0 mi SSE 12.7 mph - N/A   Overcast
1:51 PM 69.8 °F 62.6 °F 78% 29.85 in 10.0 mi South 12.7 mph - N/A   Overcast
1:53 PM 70.0 °F 62.1 °F 76% 29.83 in 10.0 mi South 9.2 mph - N/A   Overcast
2:53 PM 73.0 °F 63.0 °F 71% 29.81 in 10.0 mi SSE 17.3 mph - N/A   Overcast
3:53 PM 73.0 °F 62.1 °F 68% 29.80 in 10.0 mi South 11.5 mph 21.9 mph N/A   Overcast
4:53 PM 73.0 °F 62.1 °F 68% 29.79 in 10.0 mi South 11.5 mph - N/A   Overcast
5:53 PM 73.9 °F 63.0 °F 68% 29.77 in 10.0 mi South 11.5 mph - N/A   Overcast
6:53 PM 73.0 °F 63.0 °F 71% 29.76 in 10.0 mi SSE 10.4 mph - N/A   Overcast
7:49 PM 71.6 °F 64.4 °F 78% 29.76 in 10.0 mi SE 18.4 mph 24.2 mph N/A   Overcast
7:53 PM 72.0 °F 64.0 °F 76% 29.75 in 10.0 mi SSE 17.3 mph 24.2 mph N/A   Overcast
8:53 PM 71.1 °F 64.0 °F 78% 29.77 in 10.0 mi SSE 18.4 mph - N/A   Overcast
9:53 PM 70.0 °F 64.0 °F 81% 29.78 in 10.0 mi SSE 13.8 mph 21.9 mph N/A   Overcast
10:53 PM 69.1 °F 64.0 °F 84% 29.74 in 10.0 mi SSE 13.8 mph 24.2 mph N/A   Partly Cloudy
11:53 PM 69.1 °F 64.0 °F 84% 29.73 in 10.0 mi SSE 13.8 mph - N/A   Clear